Location: Unspecified
(47.9110°N, 14.3980°E)
Time: 03:54:02
(UTC+00:00)

CZ-4B DEB - Pass Details

Date: 06 August 2020
Orbit: 436 x 439 km, 97.3° (Epoch: 23 September)

Event Time Altitude Azimuth Distance (km) Brightness Sun altitude
Exits shadow 20:17:27 34° 145° (SE) 759 5.0 -15.3°
Maximum altitude 20:18:44 64° 75° (ENE) 496 4.4 -15.4°
Drops below altitude 10° 20:22:04 10° 353° (N) 1,572 8.0 -15.8°
Sets 20:24:07 0° 350° (N) 2,447 9.2 -16.0°
